Regional Weather Roundup
Issued by NWS Grand Forks, ND

Home | Current Version | Previous Version | Graphics & Text | Print | Product List | Glossary On
Versions: 1 2 3 4 5 6 7 8 9 10 11 12 13 14 15 16 17 18 19 20 21 22 23 24 25 26 27 28 29 30 31 32 33 34 35 36 37 38 39 40 41 42 43 44 45 46 47 48 49 50
000
ASUS43 KFGF 181131
RWRFGF
PRAIRIE TO PINES  WEATHER ROUNDUP
NATIONAL WEATHER SERVICE EASTERN NORTH DAKOTA/GRAND FORKS ND
600 AM CDT THU SEP 18 2014

 **SATELLITE DATA USED TO AUGMENT SKY COVER AT AUTOMATED STATIONS**
 *****  WEATHER ACROSS EASTERN NORTH DAKOTA  *****

CITY           SKY/WX    TMP DP  RH WIND       PRES   REMARKS
GRAND FORKS    CLEAR     37  36  96 CALM      30.00F
GRAND FRKS AFB FOG       34  32  93 CALM      30.00F VSB 1
GRAND FRKS NWS   N/A     41 N/A N/A SE6         N/A
DEVILS LAKE    CLEAR     46  39  76 SE8       29.95F
FARGO          CLEAR     42  40  92 CALM      30.00S
WAHPETON ARPT  CLOUDY    50  46  87 SE10      30.00F
$$

 ***** WEATHER ACROSS CENTRAL AND WESTERN NORTH DAKOTA  *****

CITY           SKY/WX    TMP DP  RH WIND       PRES   REMARKS
BISMARCK       CLEAR     47  46  97 E8        29.93F
MINOT          CLEAR     45  43  93 E7        29.89F
JAMESTOWN      FOG       41  39  93 CALM      29.97S VSB 1/2
MINOT AFB      PTCLDY    44  44 100 SE10      29.88F
GARRISON         N/A     52  49  89 SE10      29.89F
WILLISTON      PTCLDY    56  46  69 S5        29.79F
DICKINSON      CLEAR     52  46  80 S12       29.84F
HETTINGER      CLEAR     51  46  83 SE9       29.89F
$$

 *****  OTHER AIRPORT OBSERVATIONS IN OUR AREA  *****

CITY           SKY/WX    TMP DP  RH WIND       PRES   REMARKS
WALHALLA       FAIR      32  32 100 CALM      30.00F
GRAFTON AIRPOR FAIR      36  36 100 E5        30.00F
VALLEY CITY AR FAIR      45  45 100 E3        29.98F
CANDO          FAIR      37  37 100 SE8       29.96F FOG
CAVALIER APRT  FOG       36  36 100 CALM      30.00F VSB 3/4
GWINNER        CLOUDY    45  45 100 N5        29.99S VSB 0
SHEYENNE NWR     N/A     43  43  99 E3        29.95
ROLLA          PTSUNNY   36  36 100 SW5       29.96F FOG
 ***** THE ABOVE OBSERVATIONS ARE NON NWS ARE NOT QUALITY
       CONTROLLED AND MAY MIS-REPORT RAIN FOR SNOW...
$$

  *****  WEATHER ACROSS NORTHERN MINNESOTA  *****

CITY           SKY/WX    TMP DP  RH WIND       PRES   REMARKS
FLAG ISLAND    CLOUDY    46  45  93 SE18      30.05S
WARROAD        FOG       43  37  81 SE3       30.06S VSB 3/4
ROSEAU         HAZE      43  37  81 SE8       30.04F VSB 3/4
HALLOCK        CLEAR     39  37  93 E5        30.01S
THF RVR FALLS  CLOUDY    46  46 100 SE9       30.02F VSB 1/2
BAUDETTE       FOG       42  41  96 VRB5      30.07F VSB 1
WASKISH        CLOUDY    45  43  93 CALM      30.07F
CROOKSTON      CLEAR     43  43 100 SE7       30.02S
$$
  *****  WEATHER ACROSS CENTRAL AND WEST MINNESOTA  *****

CITY           SKY/WX    TMP DP  RH WIND       PRES   REMARKS
FOSSTON        CLOUDY    46  45  93 SE8       30.04S FOG
BEMIDJI        CLOUDY    44  41  89 SE10G16   30.07S
PARK RAPIDS    CLOUDY    45  45 100 SE7       30.07S FOG
ELBOW LAKE     CLOUDY    49  49 100 E12       30.02S FOG
WADENA         FOG       46  45  93 SE9       30.06S VSB 1/2
DETROIT LAKES  FOG       46  46 100 SE9       30.05S VSB 3/4
MOORHEAD       CLEAR     50  50 100 SE3       30.00F
FERGUS FALLS   CLOUDY    50  48  93 E8        30.02F FOG
MORRIS MN      FOG       50  48  93 E13       30.02R VSB 1/2
STAPLES        CLOUDY    46  45  93 SE6       30.08S
$$
  *****  WEATHER ELSEWHERE ACROSS MINNESOTA  *****

CITY           SKY/WX    TMP DP  RH WIND       PRES   REMARKS
DULUTH         MOCLDY    42  36  79 E13       30.13S
INTRNTL FALLS  CLOUDY    42  40  92 SE7       30.11S
ELY            CLOUDY    39  34  81 SE6       30.15R
CLOQUET        MOCLDY    39  37  93 E6        30.12F
WHEATON        CLEAR     45  43  93 E9        30.02S FOG
BRAINERD       CLEAR     41  38  89 NE7       30.10S
HIBBING        CLOUDY    43  37  79 SE10      30.13S
ALEXANDRIA     FOG       48  47  96 E10       30.06S VSB 1/2
SAINT CLOUD    CLOUDY    48  44  86 NE6       30.08S
MINNEAPOLIS    CLEAR     49  46  90 NE7       30.07R
$$

  *****  WEATHER ACROSS SOUTH DAKOTA  *****

CITY           SKY/WX    TMP DP  RH WIND       PRES   REMARKS
SIOUX FALLS    MOCLDY    55  52  89 E6        29.98S
BROOKINGS      NOT AVBL
WATERTOWN      CLEAR     54  49  83 SE5       29.98
HURON          CLEAR     53  50  89 SE3       29.95S
SISSETON         N/A     42  42 100 CALM      29.98F
ABERDEEN       CLEAR     44  44 100 N3        29.96F
MITCHELL       CLEAR     50  50 100 E5        29.95F FOG
PIERRE         CLOUDY    53  49  86 E8        29.90S
MOBRIDGE       CLEAR     50  48  93 E9        29.90F
RAPID CITY     CLEAR     49  48  97 SE3       29.88F FOG
$$

  *****  SOME WEATHER IN NEARBY STATES *****

CITY           SKY/WX    TMP DP  RH WIND       PRES   REMARKS
GLASGOW MT     CLEAR     54  48  80 E14       29.68F
GREAT FALLS MT MOCLDY    67  41  38 S10       29.72F
CHEYENNE WY    CLEAR     53  40  61 W12       30.08S
SCOTTSBLUFF NE FOG       53  53 100 SE6       29.95S VSB 1/4
OMAHA NE       PTCLDY    60  57  89 SE6       30.00R
DES MOINES IA  MOCLDY    58  55  90 SE5       30.04R
DAVENPORT IA   CLEAR     48  45  89 E3        30.06R FOG
CHICAGO IL     PTCLDY    53  47  79 N8        30.08S
EAU CLAIRE WI  PTCLDY    47  45  93 E6        30.09S
LA CROSSE WI   PTCLDY    50  48  93 E6        30.08S
$$

  *****  SOME NATIONAL WEATHER *****

CITY           SKY/WX    TMP DP  RH WIND       PRES   REMARKS
LA GUARDIA NY  PTCLDY    61  50  67 NW5       29.98R
RALEIGH NC     PTCLDY    60  57  89 NE3       29.99R
ATLANTA GA     MOCLDY    63  59  88 CALM      29.97R
NEW ORLEANS LA PTCLDY    76  73  91 CALM      29.90R
OKLAHOMA CITY  MOCLDY    70  64  81 S6        29.92R
ALBUQUERQUE NM PTCLDY    60  55  83 N5        30.08S
SALT LAKE CITY PTCLDY    71  43  36 SE13      29.90R
LOS ANGELES CA CLEAR     68  61  78 CALM      29.80R
BOISE ID       CLOUDY    72  41  32 CALM      29.75R
SEATTLE WA     CLOUDY    59  58  96 CALM      29.74S
$$

*** WEATHER ACROSS MANITOBA...SASKATCHEWAN AND ONTARIO ***
                ***ONTARIO***

CITY           SKY/WX    TMP DP  RH WIND       PRES   REMARKS
GERALDTON      PTCLDY    25  23  93 CALM      30.18S
THUNDER BAY    PTCLDY    28  28 100 W2        30.21S
SIOUX LOOKOUT  PTCLDY    27  27 100 SE2       30.14S
TORONTO        CLOUDY    54  50  87 N15       30.04R
BIG TROUT LK   CLEAR     32  23  69 SW6       30.15S
PICKLE LAKE    MOCLDY    25  21  86 SE3       30.14
DRYDEN         CLOUDY    36  34  93 SE6       30.11F
KENORA         MOCLDY    37  36  93 SE7       30.08S
$$
                *** MANITOBA***

CITY           SKY/WX    TMP DP  RH WIND       PRES   REMARKS
BRANDON        CLEAR     34  34 100 E8        29.95F
DAUPHIN        CLEAR     34  34 100 NW2       29.89F FOG
ISLAND LAKE    CLEAR     36  30  80 S6        30.04F
PILOT MOUND      N/A     36  36 100 SE7         N/A
THE PAS        CLOUDY    43  41  93 S15       29.79F
THOMPSON       MOCLDY    37  34  87 SE5       29.85F
WINNIPEG       CLEAR     37  36  93 SE9       30.02F
LYNN LAKE      CLOUDY    39  36  87 S9        29.68F
CHURCHILL      MOCLDY    30  25  80 S14       29.92F WCI  20
GILLAM         PTCLDY    30  28  93 S9        29.97F WCI  22
$$
                ***SASKATCHEWAN***

CITY           SKY/WX    TMP DP  RH WIND       PRES   REMARKS
ESTEVAN        PTCLDY    46  46 100 E13       29.80F
KINDERSLEY     PTCLDY    52  48  87 S8        29.56F
LLOYDMINSTER   MOCLDY    45  45 100 SE7       29.55F
PRINCE ALBERT  PTCLDY    41  41 100 E8        29.64F
REGINA         CLEAR     48  46  93 SE17G23   29.74F
YORKTON        MOCLDY    43  41  93 S12       29.82F
N. BATTLEFORD  CLEAR     46  45  93 E9        29.59F
LA RONGE       CLEAR     46  45  93 S10       29.62F
SASKATOON      PTCLDY    52  46  82 S8        29.62F
SWIFT CURRENT  PTCLDY    57  48  72 S18       29.62F
$$
NOTE: THESE ARE AUTOMATED STATIONS WITH LIMITED QUALITY CONTROL
      "FAIR" INDICATES FEW OR NO CLOUDS BELOW 12,000 FEET WITH NO
      SIGNIFICANT WEATHER AND/OR OBSTRUCTIONS TO VISIBILITY.
      SKY/WX - SKY CONDITION AND SIGNIFICANT WEATHER.
      TMP - AIR TEMPERATURE.    DP   - DEWPOINT TEMPERATURE.
      RH  - RELATIVE HUMIDITY.  PRES - PRESSURE.
      HX  - HEAT INDEX.         WCI  - WIND CHILL INDEX.
$



USA.gov is the U.S. government's official web portal to all federal, state and local government web resources and services.